Regional Weather Roundup
Issued by NWS

Home | Current Version | Previous Version | Text Only | Print | Product List | Glossary Off
Versions: 1 2 3 4 5 6 7 8 9 10 11 12 13 14 15 16 17 18 19 20 21 22 23 24 25 26 27 28 29 30 31 32 33 34 35 36 37 38 39 40 41 42 43 44 45 46 47 48 49 50

000
ASUS43 KLOT 290912
RWRIL

ILLINOIS REGIONAL WEATHER ROUNDUP
NATIONAL WEATHER SERVICE CHICAGO/ROMEOVILLE IL
400 AM CDT SAT AUG 29 2015

NOTE: "FAIR" INDICATES FEW OR NO CLOUDS BELOW 12,000 FEET WITH NO
SIGNIFICANT WEATHER AND/OR OBSTRUCTIONS TO VISIBILITY.

* THESE STATIONS ARE NOT UNDER NWS QUALITY CONTROL. THEY ALSO MAY NOT
  REPORT WEATHER SUCH AS PRECIPITATION OR FOG.

ILZ001-002-007-009-015-016-024-291000-
NORTHWEST ILLINOIS

CITY           SKY/WX    TMP DP  RH WIND       PRES   REMARKS
MOLINE         CLOUDY    68  62  81 S6        29.95S
STERLING*      CLOUDY    64  61  88 SE10      29.97F
SAVANNA*       LGT RAIN  65  62  90 SE10      29.96F
$$

ILZ003-004-008-010-011-017-018-291000-
NORTH CENTRAL ILLINOIS

CITY           SKY/WX    TMP DP  RH WIND       PRES   REMARKS
ROCKFORD       RAIN      64  61  90 S12       30.04S FOG
FREEPORT*      RAIN      62  61  97 SE12      30.01F
ROCHELLE*      HVY RAIN  62  61  96 SE5       30.04S
DE KALB*       LGT RAIN  64  62  94 S5        30.05R
PERU*          CLOUDY    66  60  82 SE7       30.02S
$$

ILZ005-006-012>014-019>023-291000-
NORTHEAST ILLINOIS

CITY           SKY/WX    TMP DP  RH WIND       PRES   REMARKS
CHICAGO-OHARE  LGT RAIN  65  61  87 S8        30.03F
CHICAGO-MIDWAY LGT RAIN  68  60  75 SE6       30.04F
AURORA         RAIN      64  62  93 SE8       30.04F FOG
LANSING*       CLOUDY    64  59  85 SE3       30.05F
JOLIET*        CLOUDY    66  62  86 CALM      30.04S
WAUKEGAN       LGT RAIN  65  63  93 S7        30.03F
DUPAGE AIRPORT RAIN      64  61  90 S7        30.03F FOG
KANKAKEE*      MOCLDY    63  60  90 CALM      30.05F
WHEELING       LGT RAIN  65  62  90 CALM      30.04F
MORRIS*        CLOUDY    65  61  89 SE6       30.02S
ROMEOVILLE*    CLOUDY    64  60  86 SE5       30.04F
NORTHERLY ISL    N/A     64  59  83 S2          N/A
$$

LMZ740>746-291000-
SOUTHERN LAKE MICHIGAN

STATION/POSITION SKY/WX   TEMP    WIND        PRES    VSBY  WAVE
                          AIR SEA DIR/SP/G                  HT/PER
                          (F)     (DEG/KT/KT) (MB)    (MI)  (FT/S)
SOUTHERN BUOY              68 68  100/ 12/ 14 1017.4F         1/ 3
WILMETTE HARBOR            60 56  320/  4/  6   N/A           1/ 3
HARRISON CRIB              68     160/ 10/ 11   N/A
BURNHAM HARBOR             64     150/  4/  4   N/A
BURNS HARBOR               69     140/  9/ 13 1018.3F
MICHIGAN CITY              66     120/  7/  9   N/A
MICHIGAN CITY 6N           69 71  170/ 10/ 14   N/A           1
ST. JOSEPH                 69 72  190/ 12/ 14   N/A           1
$$

ILZ025>027-034>036-040-047-049-050-058-095>099-291000-
WEST-CENTRAL ILLINOIS

CITY           SKY/WX    TMP DP  RH WIND       PRES   REMARKS
QUINCY         CLOUDY    69  62  78 S9        29.97F
GALESBURG*     LGT RAIN  66  62  87 SE8       29.97F
MACOMB*        CLOUDY    66  64  90 S5        29.99F
JACKSONVILLE*  CLOUDY    71  64  77 S8        30.00F
PITTSFIELD*    LGT RAIN  69  63  82 S9        30.00F
$$

ILZ028>032-037-038-041>044-048-051>054-059>061-291000-
CENTRAL ILLINOIS

CITY           SKY/WX    TMP DP  RH WIND       PRES   REMARKS
PONTIAC        CLOUDY    65  63  91 CALM      30.03F
BLOOMINGTON    LGT RAIN  66  63  90 S6        30.04F
DECATUR        CLOUDY    68  60  75 S5        30.04F
PEORIA         CLOUDY    68  62  81 S9        30.00F
LACON*         LGT RAIN  65  60  82 CALM      30.00S
LINCOLN*       CLOUDY    66  62  86 CALM      30.02F
SPRINGFIELD    CLOUDY    68  64  87 S9        30.01F
TAYLORVILLE    CLOUDY    64  63  94 CALM      30.03S
$$

ILZ033-039-045-046-055>057-062-063-291000-
EAST-CENTRAL ILLINOIS

CITY           SKY/WX    TMP DP  RH WIND       PRES   REMARKS
CHAMPAIGN      CLOUDY    65  60  84 SE6       30.05F
RANTOUL*       CLOUDY    65  62  89 S3        30.05F
MATTOON        HAZE      66  60  81 S5        30.04F VSB 1/2
PARIS*         MOCLDY    62  60  95 CALM      30.07S
$$

ILZ079-100>102-291000-
SOUTHWEST ILLINOIS

CITY           SKY/WX    TMP DP  RH WIND       PRES   REMARKS
ALTON          CLOUDY    65  64  95 CALM      30.03S
BELLEVILLE     CLOUDY    67  67  99 CALM      30.02S
CAHOKIA*       CLOUDY    69  64  84 SE5       30.02F
SPARTA*        CLOUDY    67  65  93 CALM      30.04S
$$

ILZ064>066-069>071-074>076-080>082-084>086-088>090-092>094-291000-
SOUTH-CENTRAL ILLINOIS

CITY           SKY/WX    TMP DP  RH WIND       PRES   REMARKS
CARBONDALE     CLOUDY    67  65  93 SE3       30.03R
CAIRO*         CLOUDY    71  69  92 S5        30.03R
EFFINGHAM*     CLOUDY    66  62  86 CALM      30.06F
MARION         CLOUDY    72  66  83 CALM      30.04R
MT. VERNON     CLOUDY    66  61  82 CALM      30.05S
SALEM*         CLOUDY    69  65  85 CALM      30.04R
METROPOLIS*    CLOUDY    72  68  88 S3        30.04S
$$

ILZ067-068-072-073-078-083-087-091-291000-
SOUTHEAST ILLINOIS

CITY           SKY/WX    TMP DP  RH WIND       PRES   REMARKS
LAWRENCEVILLE  CLOUDY    67  63  87 CALM      30.06R
FLORA*         CLOUDY    67  62  84 CALM      30.05S
FAIRFIELD*     CLOUDY    67  65  92 CALM      30.04R
HARRISBURG*    CLOUDY    67  65  96 CALM      30.05R
ROBINSON*      CLOUDY    64  62  95 CALM      30.07R
CARMI*         CLOUDY    63  63  98 CALM      30.05R FOG
$$

ABBREVIATIONS USED IN REMARKS
   TC - TEMPERATURE IN CELSIUS
  WCI - WIND CHILL INDEX
   HX - HEAT INDEX
  VSB - VISIBILITY
$$




USA.gov is the U.S. government's official web portal to all federal, state and local government web resources and services.